Regional Weather Roundup
Issued by NWS

Home | Current Version | Previous Version | Graphics & Text | Print | Product List | Glossary On
Versions: 1 2 3 4 5 6 7 8 9 10 11 12 13 14 15 16 17 18 19 20 21 22 23 24 25 26 27 28 29 30 31 32 33 34 35 36 37 38 39 40 41 42 43 44 45 46 47 48 49 50
000
ASUS43 KBIS 031202
RWRND

NORTH DAKOTA REGIONAL WEATHER ROUNDUP
NATIONAL WEATHER SERVICE BISMARCK ND
700 AM CDT THU SEP 03 2015

NOTE: "FAIR" INDICATES FEW OR NO CLOUDS BELOW 12,000 FEET WITH NO
SIGNIFICANT WEATHER AND/OR OBSTRUCTIONS TO VISIBILITY.


NDZ001>003-009>011-017-031300-
NORTHWEST NORTH DAKOTA

CITY           SKY/WX    TMP DP  RH WIND       PRES   REMARKS
WILLISTON      CLEAR     67  51  56 N15       29.68R
6HR MIN TEMP:  64; 6HR MAX TEMP:  79;

MINOT          FOG       65  64  97 E6        29.64F VSB 1/4
MINOT AFB      FOG       68  68 100 VRB7      29.65R VSB 1
$$

NDZ018>021-031>035-040>046-031300-
SOUTHWEST NORTH DAKOTA

CITY           SKY/WX    TMP DP  RH WIND       PRES   REMARKS
BISMARCK       CLEAR     67  67 100 E9        29.68S FOG
6HR MIN TEMP:  67; 6HR MAX TEMP:  75;

DICKINSON      CLEAR     62  56  80 SW10      29.66S
GARRISON         N/A     68  30  24 E7        29.66S
6HR MIN TEMP:  68; 6HR MAX TEMP:  73;

HETTINGER ARPT CLEAR     55  53  93 CALM      29.71F
$$

NDZ004>008-012>016-024-026-027-054-031300-
NORTHEAST NORTH DAKOTA

CITY           SKY/WX    TMP DP  RH WIND       PRES   REMARKS
GRAND FORKS    CLOUDY    71  70  96 SE16      29.77S FOG
GRND FRKS AFB  CLOUDY    70  70  99 SE12      29.77F FOG
DEVILS LAKE    CLOUDY    72  64  78 SE14      29.73S
$$

NDZ022-023-025-028>030-036>039-047>053-031300-
SOUTHEAST NORTH DAKOTA

CITY           SKY/WX    TMP DP  RH WIND       PRES   REMARKS
FARGO          CLOUDY    73  69  87 SE13G26   29.79S
6HR MIN TEMP:  72; 6HR MAX TEMP:  74;

JAMESTOWN      CLOUDY    73  70  90 SE14      29.74F FOG
$$



USA.gov is the U.S. government's official web portal to all federal, state and local government web resources and services.